User: anonymous
Location: Nebula Knoll Observatory
(43.6666°N, 71.0000°W)
Time: 19:33:33
(UTC-04:00)
Language:

Cosmos 1782 - Orbit

View from above orbital plane
View from above orbital plane
View from above satellite
View from above satellite

Ground track
Ground track

The orbit data is extracted from the following two-line orbital elements,

1 16986U 86074A   14243.99513366  .00002272  00000-0  16642-3 0  8311
2 16986 082.5077 031.9565 0011223 215.3736 144.6746 15.03067208517362
Epoch (UTC): 31 August 2014 23:52:59
Eccentricity: 0.0011223
inclination: 82.5077°
perigee height: 549 km
apogee height: 565 km
right ascension of ascending node: 31.9565°
argument of perigee: 215.3736°
revolutions per day: 15.03067208
mean anomaly at epoch: 144.6746°
orbit number at epoch: 51736

The dashed part of the orbit path shows where the satellite is in the earth's shadow,  

DLR